Regional Weather Roundup
Issued by NWS

Home | Current Version | Previous Version | Graphics & Text | Print | Product List | Glossary On
Versions: 1 2 3 4 5 6 7 8 9 10 11 12 13 14 15 16 17 18 19 20 21 22 23 24 25 26 27
000
ASUS45 KBOU 070007
RWRCO

WEATHER ROUNDUP FOR COLORADO
NATIONAL WEATHER SERVICE DENVER/BOULDER CO
500 PM MST TUE DEC 06 2016

NOTE: "FAIR" INDICATES FEW OR NO CLOUDS BELOW 12000 FEET WITH NO
SIGNIFICANT WEATHER AND/OR OBSTRUCTIONS TO VISIBILITY.

COZ001>005-013-030-031-070100-
...NORTHWEST COLORADO...

CITY           SKY/WX    TMP DP  RH WIND       PRES   REMARKS
CRAIG          CLOUDY    25   8  48 NE3       29.68S
HAYDEN         CLOUDY    21   7  53 SE5       29.65S WCI  15
MEEKER         FAIR      21  10  62 CALM      29.63S
MOUNT WERNER   NOT AVBL
STEAMBOAT SPGS CLOUDY    18   7  63 CALM      29.65S
WALDEN           N/A     12   7  79 CALM      29.65S
$$

COZ006>008-011-070100-
...WEST CENTRAL VALLEYS...

CITY           SKY/WX    TMP DP  RH WIND       PRES   REMARKS
GRAND JUNCTION FAIR      27  10  49 CALM      29.68F
MONTROSE       FAIR      33  14  45 CALM      29.68S
EAGLE          FLURRIES  25  12  58 CALM      29.68F
RIFLE          CLOUDY    29  11  47 CALM      29.68S
DELTA          CLOUDY    36  10  35 SW5       29.67S
NUCLA          FAIR      41  12  30 SW16G26   29.70F
$$

COZ017>023-064>068-070100-
...SOUTHWEST COLORADO...

CITY           SKY/WX    TMP DP  RH WIND       PRES   REMARKS
DURANGO        FAIR      36  14  40 SW7       29.75R
CORTEZ         MOCLDY    39  19  44 S8        29.73F
PAGOSA SPRINGS MOCLDY    34  15  46 SW6       29.76S WCI  29
TELLURIDE      MOCLDY    30   7  37 SW9G26    29.73R WCI  21
WOLF CREEK PAS LGT SNOW  12  12 100 SW31G41   29.69F WCI -10
$$

COZ009-010-012-014-032>034-037-058>063-070100-
...CENTRAL COLORADO...

CITY           SKY/WX    TMP DP  RH WIND       PRES   REMARKS
ASPEN          CLOUDY    27  20  75 S7        29.61F WCI  19
BUENA VISTA    CLOUDY    22   4  45 SE13      29.64R WCI  10
COPPER MTN     LGT SNOW  14   5  67 MISG      29.57F
BERTHOUD PASS  LGT SNOW   5  -8  56 W18       29.54S WCI -15
COTTONWOOD PAS LGT SNOW  23  19  86 SE3       29.61F
GUNNISON       FLURRIES  27  19  72 CALM      29.65F
KREMMLING      CLOUDY    21  12  68 CALM      29.66F
LEADVILLE      LGT SNOW  17  14  88 S5        29.58S VSB 1   WCI  10
MONARCH PASS   SNOW      12  10  92 SW30G37   29.71S VSB<1/4 WCI  -9
SALIDA         CLOUDY    20   8  60 SE21G28   29.75S WCI   4
SUNLIGHT       CLOUDY    14  10  85 SW15G30   29.63F WCI  -1
WILKERSON PASS CLOUDY    12   5  73 SW8       29.62S WCI   1
$$

COZ069>075-070100-
...SAN LUIS VALLEY/SANGRE DE CRISTO MOUNTAINS...

CITY           SKY/WX    TMP DP  RH WIND       PRES   REMARKS
ALAMOSA        FAIR      29  22  75 S15       29.71S WCI  18
LA VETA PASS   CLOUDY    21  18  86 N26G38    29.68S WCI   4
SAGUACHE       MOCLDY    30  12  47 W3        29.67R
$$

COZ035-036-038>040-070100-
...NORTHERN COLORADO FRONT RANGE...

CITY           SKY/WX    TMP DP  RH WIND       PRES   REMARKS
DENVER INTL AP CLOUDY    24   3  40 S20G25    29.81F WCI  10
DMNS CITY PARK   N/A     24  10  54 E10G18    29.82R WCI  14
AURORA         NOT AVBL
FRONT RANGE AP CLOUDY    27   1  33 SE13      29.83S WCI  16
ERIE MUNI ARPT CLOUDY    26  11  52 NW5       29.82R WCI  21
BOULDER MUN AP CLOUDY    27  14  59 W7        29.81F WCI  19
CENTENNIAL     CLOUDY    23   0  36 SE12      29.79R WCI  12
BROOMFIELD     CLOUDY    25  10  54 W8        29.80R WCI  16
FORT COLLINS   FAIR      27   1  33 SE13G18   29.84S WCI  16
LONGMONT       CLOUDY    27  15  59 NW12G18   29.84S WCI  17
$$

COZ041-046-047-076>085-087-088-070100-
...PIKES PEAK/PALMER DIVIDE AND SOUTHERN FOOTHILLS...

CITY           SKY/WX    TMP DP  RH WIND       PRES   REMARKS
COLO. SPRINGS  LGT SNOW  16  12  84 SE10      29.81S FOG     WCI   4
A. F. ACADEMY  NOT AVBL
SCHRIEVER AFB  NOT AVBL
ELLICOTT       LGT RAIN N/A N/A N/A SE9       29.80F
FALCON         FAIR      15  -2  48 S15       29.78F WCI  -1
FORT CARSON    NOT AVBL
LIMON          FAIR      16  -5  39 SE7       29.86S WCI   6
MONUMENT HILL  FAIR      12  -2  52 S9        29.77S WCI   0
TRINIDAD       FAIR      32   6  33 W9        29.77R WCI  24
$$

COZ042>045-048>051-090-091-070100-
...NORTHEAST COLORADO...

CITY           SKY/WX    TMP DP  RH WIND       PRES   REMARKS
GREELEY ARPT   CLOUDY    25  -6  25 E10       29.88  WCI  15
AKRON          CLOUDY    24 -12  20 SE7       29.89S WCI  16
BURLINGTON     FAIR      22  -6  29 S9        29.94R WCI  12
WRAY           NOT AVBL
STERLING       CLOUDY    28  -4  24 NE5       29.92R WCI  23
HOLYOKE        FAIR      27   0  31 E6        29.96R WCI  20
FORT MORGAN    CLOUDY    24  -8  23 E3        29.90R
$$

COZ086-089-092>099-070100-
...SOUTHEAST COLORADO...

CITY           SKY/WX    TMP DP  RH WIND       PRES   REMARKS
PUEBLO         CLOUDY    26   0  32 E9        29.85F WCI  17
LA JUNTA       FAIR      27  -2  28 E18       29.85F WCI  14
LAMAR          FAIR      27  -2  28 SE9       29.92S WCI  18
SPRINGFIELD      N/A     25  -2  31 SE13      29.91R WCI  14
$$




USA.gov is the U.S. government's official web portal to all federal, state and local government web resources and services.